Home > Weather > Pensacola > Past weeks

Flag for USA Past Weather in Pensacola, Florida, USA — Yesterday and Last 2 Weeks

Now
76 °F

Clear.


Feels Like: 76 °F
Forecast: 74 / 86 °F
Wind: 5 mph from North

Location: Pensacola Regional Airport

Current Time: Aug 27, 2016 at 7:01:56 AM

Latest Report: Aug 27, 2016 at 5:53 AM


Visibility: 9 mi

Pressure: 29.99 "Hg

Humidity: 91%

Dew Point: 73 °F

Location of PensacolaLocation

Past Weather in Pensacola — Graph

°F

Pensacola Temperature Yesterday

Maximum temperature yesterday: 91 °F (at 2:53 PM)
Minimum temperature yesterday: 77 °F (at 4:53 AM)
Average temperature yesterday: 83 °F

High & Low Weather Summary for the Past Weeks

 TemperatureHumidityPressure
High94 °F (Aug 23, 2:53 PM)94% (Aug 12, 8:53 AM)30.21 "Hg (Aug 12, 8:53 AM)
Low75 °F (Aug 22, 3:53 AM)46% (Aug 25, 2:53 PM)29.92 "Hg (Aug 12, 4:00 PM)
Average83 °F78%30.06 "Hg
* Reported Aug 12 5:53 AM — Aug 27 5:53 AM, Pensacola, Weather by CustomWeather, © 2016

Note: Actual official high and low records may vary slightly from our data, if they occured in-between our weather recording intervals... More about our weather records

Advertising

Pensacola Weather History for the Previous 24 Hours

Scroll right to see more
 ConditionsComfort  
Time TempWeatherWind HumidityBarometerVisibility
5:53 AM
Sat, Aug 27
76 °FClear.5 mph91%29.99 "Hg9 mi
4:53 AM77 °FClear.5 mph88%29.98 "Hg9 mi
3:53 AM78 °FClear.6 mph90%29.97 "Hg9 mi
2:53 AM79 °FClear.5 mph88%29.97 "Hg10 mi
1:53 AM79 °FClear.5 mph90%29.96 "Hg10 mi
12:53 AM80 °FClear.3 mph87%29.98 "Hg10 mi
11:53 PM
Fri, Aug 26
81 °FClear.3 mph85%30.00 "Hg10 mi
10:53 PM80 °FClear.3 mph81%30.00 "Hg10 mi
9:53 PM80 °FClear.3 mph81%30.00 "Hg10 mi
8:53 PM81 °FClear.No wind79%30.00 "Hg10 mi
7:53 PM83 °FPassing clouds.3 mph72%29.99 "Hg10 mi
6:53 PM85 °FSunny.7 mph68%29.98 "Hg10 mi
5:53 PM87 °FPassing clouds.8 mph61%29.98 "Hg10 mi
4:53 PM89 °FPassing clouds.10 mph55%29.97 "Hg10 mi
3:53 PM89 °FSunny.12 mph55%29.98 "Hg10 mi
2:53 PM91 °FSunny.13 mph50%29.99 "Hg10 mi
1:53 PM90 °FPassing clouds.10 mph52%30.01 "Hg10 mi
12:53 PM89 °FPassing clouds.14 mph55%30.03 "Hg10 mi
11:53 AM90 °FPassing clouds.9 mph50%30.04 "Hg10 mi
10:53 AM88 °FSunny.10 mph55%30.06 "Hg10 mi
9:53 AM86 °FSunny.8 mph61%30.06 "Hg10 mi
8:53 AM84 °FSunny.5 mph70%30.05 "Hg10 mi
7:53 AM80 °FSunny.6 mph76%30.05 "Hg10 mi
Weather by CustomWeather, © 2016

See weather overviewHow to use our weather pages